Home > Weather > Esfahãn > Past weeks

Flag for Iran Past Weather in Esfahãn, Iran — Yesterday and Last 2 Weeks

Now
73 °F

Clear.


Feels Like: 77 °F
Forecast: 63 / 99 °F
Wind: 7 mph from Southwest

Location: Esfahan

Current Time: Jul 31, 2016 at 1:18:56 AM

Latest Report: Jul 31, 2016 at 1:00 AM


Visibility: 10 mi

Pressure: 29.92 "Hg (24.94 "Hg at 1576m altitude)

Humidity: 33%

Dew Point: 43 °F

Location of EsfahãnLocation

Past Weather in Esfahãn — Graph

°F

Esfahãn Temperature Yesterday

Maximum temperature yesterday: 97 °F (at 3:30 PM)
Minimum temperature yesterday: 66 °F (at 6:30 AM)
Average temperature yesterday: 84 °F

High & Low Weather Summary for the Past Weeks

 TemperatureHumidityPressure
High104 °F (Jul 25, 4:00 PM)46% (Jul 30, 6:30 AM)30.07 "Hg (Jul 30, 6:30 AM)
Low59 °F (Jul 16, 7:00 AM)5% (Jul 16, 4:30 PM)29.74 "Hg (Jul 24, 6:00 PM)
Average87 °F16%29.90 "Hg
* Reported Jul 15 11:30 PM — Jul 31 12:00 AM, Esfahãn, Weather by CustomWeather, © 2016

Note: Actual official high and low records may vary slightly from our data, if they occured in-between our weather recording intervals... More about our weather records

Advertising

Esfahãn Weather History for the Previous 24 Hours

Scroll right to see more
 ConditionsComfort  
Time TempWeatherWind HumidityBarometerVisibility
12:00 AM
Sun, Jul 31
77 °FClear.No wind30%29.92 "Hg10 mi
11:30 PM
Sat, Jul 30
81 °FClear.7 mph28%29.92 "Hg10 mi
11:00 PM82 °FClear.5 mph26%29.92 "Hg10 mi
10:30 PM82 °FClear.5 mph28%29.89 "Hg5 mi
10:00 PM86 °FClear.12 mph24%29.89 "Hg5 mi
9:30 PM86 °FClear.9 mph24%29.86 "Hg5 mi
9:00 PM88 °FClear.9 mph22%29.86 "Hg4 mi
8:30 PM90 °FClear.14 mph21%29.83 "Hg4 mi
8:00 PM91 °FDuststorm.12 mph20%29.83 "Hg3 mi
7:30 PM95 °FPassing clouds.9 mph16%29.80 "Hg4 mi
7:00 PM95 °FPassing clouds.No wind18%29.80 "Hg4 mi
6:30 PM97 °FDuststorm.9 mph17%29.80 "Hg3 mi
6:00 PM97 °FDuststorm.5 mph17%29.80 "Hg3 mi
5:30 PM97 °FDuststorm.5 mph17%29.83 "Hg3 mi
5:00 PM97 °FPassing clouds.No wind18%29.83 "Hg3 mi
4:30 PM97 °FPassing clouds.5 mph19%29.83 "Hg3 mi
4:00 PM95 °FPassing clouds.7 mph19%29.83 "Hg3 mi
3:30 PM97 °FDuststorm.7 mph18%29.86 "Hg3 mi
3:00 PM95 °FDuststorm.7 mph19%29.86 "Hg3 mi
2:30 PM95 °FDuststorm.7 mph20%29.86 "Hg3 mi
2:00 PM95 °FDuststorm.5 mph20%29.89 "Hg3 mi
1:30 PM95 °FDuststorm.5 mph20%29.89 "Hg3 mi
1:00 PM91 °FDuststorm.7 mph23%29.89 "Hg3 mi
12:30 PM93 °FDuststorm.7 mph23%29.92 "Hg3 mi
12:00 PM91 °FDuststorm.5 mph23%29.92 "Hg3 mi
11:30 AM90 °FDuststorm.7 mph24%29.92 "Hg2 mi
11:00 AM88 °FDuststorm.7 mph24%29.92 "Hg2 mi
10:30 AM84 °FDuststorm.7 mph29%29.95 "Hg2 mi
10:00 AM84 °FDuststorm.7 mph29%29.95 "Hg2 mi
9:30 AM81 °FDuststorm.7 mph30%29.95 "Hg2 mi
9:00 AM79 °FDuststorm.5 mph32%29.95 "Hg1 mi
8:30 AM75 °FDuststorm.7 mph36%29.95 "Hg1 mi
8:00 AM73 °FDuststorm.5 mph38%29.95 "Hg1 mi
7:30 AM70 °FDuststorm.7 mph46%29.92 "Hg3 mi
7:00 AM68 °FDuststorm.7 mph43%29.92 "Hg3 mi
6:30 AM66 °FDuststorm.5 mph46%29.92 "Hg3 mi
6:00 AM68 °FClear.7 mph43%29.92 "Hg4 mi
5:30 AM72 °FClear.5 mph38%29.89 "Hg4 mi
5:00 AM73 °FClear.12 mph36%29.89 "Hg4 mi
4:30 AM72 °FClear.5 mph36%29.89 "Hg5 mi
4:00 AM72 °FClear.7 mph38%29.89 "Hg10 mi
3:30 AM73 °FClear.9 mph36%29.86 "Hg5 mi
3:00 AM75 °FClear.9 mph34%29.86 "Hg5 mi
2:30 AM75 °FHaze.12 mph34%29.86 "Hg3 mi
2:00 AM75 °FHaze.9 mph36%29.86 "Hg3 mi
1:30 AM77 °FHaze.7 mph32%29.89 "Hg3 mi
1:00 AM79 °FHaze.5 mph28%29.89 "Hg3 mi
Weather by CustomWeather, © 2016

See weather overviewHow to use our weather pages